Accueil
METAR-TAF:

METAR-TAF

Aéroports :

Aéroport de Burgos

Burgos, Espagne

latitude: 42-22N, longitude: 003-38W, altitude: 894 m

Observation

Le bulletin a été fait il y a 38 minutes, à 16:00 UTC
Vent 14 kt de nord-est, variant entre nord et est/nord-est
Température 10°C
Humidité 71%
Pression 1018 hPa
Visibilité 10 km ou plus
Quelques nuages à une hauteur de 2400 ft

METAR: LEBG 051600Z 04014KT 010V070 9999 FEW024 10/05 Q1018

Heure: 17:38 (16:38 UTC)


TAF: absent

Observations et prévisions météorologiques de plus de 4000 aéroports (messages METAR et TAF).

Les stations disponibles sont représentées par des disques jaunes et rouges sur la carte.

Passer la souris dessus pour voir le nom de la station.

Cliquer dessus pour voir les observations et prévisions météorologiques.

Pour changer de carte: cliquez sur les boutons verts avec une croix noire pour zoomer, sur le bouton vert avec un tiret pour effectuer un zoom arrière, ou sur les flèches vertes pour les cartes adjacentes.


METAR-TAF: